Location: Rounton
(54.4000°N, 1.3500°W)
Time: 13:49:24
(UTC+00:00)

Vanguard 2 - Pass Details

Date: 04 December 2021
Orbit: 553 x 2936 km, 32.9° (Epoch: 23 January)

Event Time Altitude Azimuth Distance (km) Brightness Sun altitude
Rises 16:07:48 0° 232° (SW) 3,476 14.0 -3.7°
Reaches altitude 10° 16:11:57 10° 202° (SSW) 2,951 11.5 -4.2°
Maximum altitude 16:14:39 12° 180° (S) 3,058 11.1 -4.5°
Drops below altitude 10° 16:17:47 10° 159° (SSE) 3,561 11.1 -4.9°
Sets 16:24:14 0° 134° (SE) 5,197 11.6 -5.7°
